Weather History for New Orleans Lakefront, LA

Change the Weather History Date:

Friday, February 14, 2014

  Actual Average Record
Temperature  
Mean Temperature 52 °F 56 °F  
Max Temperature 67 °F 65 °F 82 °F (2001)
Min Temperature 36 °F 48 °F 23 °F (1960)
Degree Days  
Heating Degree Days 13 9  
Month to date heating degree days 187 144  
Since 1 July heating degree days 1274 1000  
Cooling Degree Days 0 1  
Month to date cooling degree days 3 14  
Year to date cooling degree days 3 30  
Moisture  
Dew Point 46 °F    
Average Humidity 74    
Maximum Humidity 92    
Minimum Humidity 56    
Precipitation  
Precipitation 0.00 in 0.19 in 2.84 in (2009)
Month to date precipitation 2.83 2.76  
Year to date precipitation 5.55 7.91  
Snow  
Snow 0.00 in - - ()
Month to date snowfall 0.0  
Since 1 July snowfall T  
Snow Depth 0.00 in    
Sea Level Pressure  
Sea Level Pressure 29.94 in    
Wind  
Wind Speed 11 mph (SW)    
Max Wind Speed 23 mph    
Max Gust Speed 28 mph    
Visibility 10 miles    
Events      
T = Trace of Precipitation, MM = Missing Value Source: NWS Daily Summary

Daily Weather History Graph

Daily Weather History Graph

Search for Another Location

Airport:

Trip Planner

Search our weather history database for the weather conditions in past years. The results will help you decide how hot, cold, wet, or windy it might be!

Date:

Astronomy

Feb. 14, 2014 Rise Set
Actual Time 6:40 AM CST 5:48 PM CST
Civil Twilight 6:16 AM CST 6:12 PM CST
Nautical Twilight 5:48 AM CST 6:40 PM CST
Astronomical Twilight 5:20 AM CST 7:08 PM CST
Moon 5:48 PM CST (2/14) 6:10 AM CST (2/14)
Length of Visible Light 11h 56m
Length of Day
11h 07m
Full, 100% of the Moon is Illuminated
Feb 14
Full
Feb 14
Full
Feb 22
Last Quarter
Mar 1
New
Mar 8
First Quarter

Hourly Weather History & Observations

Time (CST) Temp. Windchill Dew Point Humidity Pressure Visibility Wind Dir Wind Speed Gust Speed Precip Events Conditions
12:53 AM 44.1 °F 39.5 °F 37.9 °F 79% 30.01 in 10.0 mi SW 8.1 mph - N/A   Clear
1:53 AM 44.1 °F 39.5 °F 37.9 °F 79% 30.01 in 10.0 mi WSW 8.1 mph - N/A   Clear
2:53 AM 39.9 °F 35.8 °F 37.0 °F 89% 29.99 in 10.0 mi SSW 5.8 mph - N/A   Clear
3:53 AM 39.0 °F 35.7 °F 35.1 °F 86% 29.96 in 10.0 mi South 4.6 mph - N/A   Clear
4:53 AM 43.0 °F 39.5 °F 37.9 °F 82% 29.98 in 10.0 mi WSW 5.8 mph - N/A   Clear
5:53 AM 37.9 °F 34.4 °F 35.1 °F 89% 30.00 in 10.0 mi South 4.6 mph - N/A   Clear
6:53 AM 39.0 °F 35.7 °F 36.0 °F 89% 30.01 in 10.0 mi South 4.6 mph - N/A   Clear
7:53 AM 45.0 °F 41.2 °F 39.9 °F 82% 30.00 in 8.0 mi SSE 6.9 mph - N/A   Clear
8:53 AM 50.0 °F - 42.1 °F 74% 30.01 in 10.0 mi South 10.4 mph - N/A   Clear
9:53 AM 55.0 °F - 41.0 °F 59% 29.99 in 10.0 mi South 13.8 mph - N/A   Clear
10:53 AM 60.1 °F - 43.0 °F 53% 29.99 in 10.0 mi SSW 13.8 mph - N/A   Clear
11:53 AM 61.0 °F - 48.0 °F 62% 29.95 in 10.0 mi SSW 18.4 mph 24.2 mph N/A   Partly Cloudy
12:53 PM 62.1 °F - 48.9 °F 62% 29.94 in 10.0 mi SW 18.4 mph 26.5 mph N/A   Scattered Clouds
1:53 PM 64.0 °F - 48.0 °F 56% 29.90 in 10.0 mi SSW 20.7 mph - N/A   Mostly Cloudy
2:53 PM 64.9 °F - 48.9 °F 56% 29.87 in 10.0 mi SW 17.3 mph - N/A   Scattered Clouds
3:53 PM 63.0 °F - 48.9 °F 60% 29.86 in 10.0 mi SW 17.3 mph - N/A   Mostly Cloudy
4:53 PM 63.0 °F - 50.0 °F 63% 29.86 in 10.0 mi SW 19.6 mph - N/A   Overcast
5:53 PM 61.0 °F - 51.1 °F 70% 29.89 in 10.0 mi WSW 16.1 mph - N/A   Overcast
6:53 PM 61.0 °F - 52.0 °F 72% 29.88 in 10.0 mi SW 18.4 mph - N/A   Mostly Cloudy
7:53 PM 60.1 °F - 53.1 °F 78% 29.88 in 10.0 mi SW 16.1 mph - N/A   Mostly Cloudy
8:15 PM 60.1 °F - 53.1 °F 78% 29.90 in 10.0 mi SW 18.4 mph - N/A   Mostly Cloudy
8:38 PM 60.1 °F - 53.1 °F 78% 29.90 in 10.0 mi SW 17.3 mph - N/A   Scattered Clouds
8:53 PM 59.0 °F - 53.1 °F 81% 29.89 in 10.0 mi SW 16.1 mph - N/A   Partly Cloudy
9:28 PM 59.0 °F - 54.0 °F 83% 29.91 in 10.0 mi SW 16.1 mph - N/A   Mostly Cloudy
9:44 PM 59.0 °F - 54.0 °F 83% 29.92 in 10.0 mi SW 16.1 mph - N/A   Scattered Clouds
9:53 PM 57.9 °F - 54.0 °F 87% 29.91 in 10.0 mi WSW 15.0 mph - N/A   Partly Cloudy
10:53 PM 54.0 °F - 52.0 °F 93% 29.93 in 9.0 mi WNW 11.5 mph - N/A   Mostly Cloudy
11:53 PM 54.0 °F - 52.0 °F 93% 29.95 in 7.0 mi West 13.8 mph - N/A   Partly Cloudy